[[{"header":{"parameterUnit":"m.s-1","parameterCategory":1,"la1":30.2991,"la2":30.254,"lo1":-89.0895,"lo2":-89.0444,"dy":0.0017,"dx":0.0017,"nx":28,"ny":28,"refTime":"2025-12-21T09:00:00:Z","depth":0,"parameterNumber":2,"parameterNumberName":"U-component_of_WINDS"},"data":[0,0,0,0,0,0,0,0,0,0,0,0,0,0,0,0,0,0,0,0,0,0,0,0,0,0,0,0,0,0,0,0,0,0,0,0,0,0,0,0,0,0,0,0,0,0,0,0,0,0,0,0,0,0,0,0,0,0,-0.7584,-0.7584,0,-0.7625,-0.7626,-0.7626,-0.7645,-0.7645,-0.7645,-0.7645,-0.7688,-0.7689,-0.769,0,0,0,0,0,0,0,0,0,0,0,0,0,-0.752,-0.7521,-0.7584,-0.7584,-0.7585,-0.7625,-0.7626,-0.7626,-0.7645,-0.7645,-0.7645,-0.7645,-0.7687,-0.7689,-0.769,0,0,0,0,0,0,0,0,0,0,0,0,0,-0.7553,-0.7521,-0.7583,-0.7599,-0.76,-0.7625,-0.7626,-0.7627,-0.7645,-0.7645,-0.7645,-0.7644,-0.7687,-0.7688,-0.769,-0.7703,0,0,-0.7696,-0.7697,0,0,0,0,0,0,0,0,-0.7551,-0.7556,-0.7596,-0.7598,-0.76,-0.763,-0.7619,-0.7652,-0.7645,-0.7628,-0.7645,-0.7644,-0.7668,-0.7672,-0.768,-0.7705,-0.7707,-0.7696,-0.7697,-0.7698,-0.7698,0,0,0,0,0,0,0,-0.7549,-0.7554,-0.76,-0.7596,-0.7599,-0.7603,-0.7608,-0.7626,-0.7648,-0.7629,-0.7631,-0.7635,-0.7669,-0.7678,-0.7681,-0.7708,-0.7696,-0.7697,-0.7699,-0.7699,-0.7746,-0.7747,0,0,0,0,0,0,-0.7544,-0.7552,-0.7599,-0.7601,-0.7575,-0.7605,-0.761,-0.762,-0.7648,-0.7652,-0.7636,-0.7636,-0.7675,-0.7679,-0.7683,-0.77,-0.7698,-0.7699,-0.7701,-0.7746,-0.7746,-0.7747,0,0,0,0,0,0,-0.7543,-0.7548,-0.7597,-0.7577,-0.7584,-0.7606,-0.7617,-0.7621,-0.763,-0.7653,-0.7657,-0.764,-0.7675,-0.768,-0.7698,-0.7701,-0.77,-0.7702,-0.7746,-0.7746,-0.7747,-0.7734,0,0,0,0,0,0,-0.7541,-0.7548,-0.7553,-0.7577,-0.7585,-0.7612,-0.7618,-0.7622,-0.7633,-0.7634,-0.7658,-0.7662,-0.7675,-0.7695,-0.77,-0.7704,-0.7703,-0.7746,-0.7746,-0.7746,-0.7734,-0.7734,-0.7734,0,0,0,0,0,-0.7538,-0.7547,-0.7553,-0.7558,-0.7591,-0.7612,-0.7616,-0.7631,-0.7633,-0.7638,-0.7653,-0.7661,-0.77,-0.7697,-0.7702,-0.7707,-0.7746,-0.7746,-0.7746,-0.7734,-0.7734,-0.7734,0,0,0,0,0,0,-0.7523,-0.7551,-0.7557,-0.7574,-0.759,-0.7615,-0.7622,-0.763,-0.7647,-0.7647,-0.7665,-0.7671,-0.7687,-0.7699,-0.7695,-0.7721,-0.7724,-0.7725,-0.7713,-0.7713,-0.7712,-0.7709,-0.7705,0,0,0,0,0,-0.7521,-0.7535,-0.7559,-0.7572,-0.758,-0.7599,-0.7609,-0.7619,-0.7637,-0.7644,-0.766,-0.7677,-0.7693,-0.7704,-0.772,-0.7736,-0.7742,-0.7742,-0.7742,-0.7741,-0.7742,-0.7752,-0.7753,-0.7748,-0.7748,-0.7748,0,0,-0.7518,-0.7535,-0.7543,-0.7569,-0.7583,-0.7598,-0.7605,-0.762,-0.7631,-0.7646,-0.7664,-0.7677,-0.7697,-0.7714,-0.7723,-0.7725,-0.7745,-0.7742,-0.7741,-0.7743,-0.7753,-0.7753,-0.7753,-0.7748,-0.7748,-0.7748,0,0,-0.752,-0.7535,-0.7547,-0.7561,-0.7582,-0.7595,-0.7598,-0.7621,-0.763,-0.7648,-0.766,-0.7674,-0.7701,-0.7715,-0.7726,-0.7733,-0.7742,-0.7738,-0.7736,-0.7746,-0.7746,-0.7746,-0.7749,-0.775,-0.7739,-0.7739,-0.7739,0,-0.7514,-0.7536,-0.7552,-0.7566,-0.7578,-0.7592,-0.7605,-0.7618,-0.7643,-0.765,-0.7652,-0.7687,-0.7702,-0.7723,-0.7724,-0.7733,-0.7737,-0.7735,-0.7745,-0.7745,-0.7746,-0.7749,-0.775,-0.7739,-0.7739,-0.7739,-0.7739,0,-0.7527,-0.7543,-0.755,-0.7574,-0.7586,-0.7599,-0.7618,-0.7628,-0.7637,-0.765,-0.7669,-0.7687,-0.7707,-0.7713,-0.7722,-0.7736,-0.7736,-0.7741,-0.7744,-0.7745,-0.7749,-0.775,-0.7738,-0.7738,-0.7738,-0.7738,0,0,-0.752,-0.7553,-0.7556,-0.7567,-0.7591,-0.7603,-0.7617,-0.7637,-0.7646,-0.7663,-0.7675,-0.7698,-0.7703,-0.7715,-0.7726,-0.7735,-0.774,-0.7739,-0.7739,-0.7738,-0.7756,-0.7752,-0.7753,-0.7746,-0.7746,-0.7746,-0.7754,0,-0.7526,-0.7552,-0.7566,-0.7586,-0.7601,-0.7615,-0.7627,-0.7644,-0.7656,-0.7671,-0.7685,-0.7701,-0.7706,-0.7713,-0.7722,-0.7737,-0.7744,-0.7737,-0.7758,-0.7758,-0.7752,-0.7755,-0.775,-0.7757,-0.7755,-0.7756,-0.7756,0,-0.7535,-0.7552,-0.7573,-0.7596,-0.7602,-0.7613,-0.7633,-0.7646,-0.7665,-0.7674,-0.7688,-0.7699,-0.7715,-0.7717,-0.7739,-0.7734,-0.7744,-0.7752,-0.7753,-0.7755,-0.7757,-0.7757,-0.7759,-0.776,-0.7758,-0.7758,-0.7758,0,-0.7528,-0.7556,-0.7572,-0.7581,-0.7608,-0.7615,-0.7627,-0.7646,-0.7657,-0.7674,-0.7682,-0.7701,-0.7711,-0.7725,-0.7742,-0.7741,-0.7762,-0.7766,-0.777,-0.777,-0.7774,-0.7773,-0.7778,-0.778,-0.778,-0.778,-0.778,0,-0.7532,-0.7545,-0.7569,-0.7579,-0.7594,-0.7611,-0.7625,-0.7638,-0.7654,-0.7667,-0.7681,-0.7693,-0.7714,-0.7728,-0.7741,-0.7758,-0.7763,-0.777,-0.7773,-0.7769,-0.7768,-0.7775,-0.7775,-0.778,-0.778,-0.778,-0.778,0,-0.7527,-0.7543,-0.7562,-0.7586,-0.7593,-0.7602,-0.7623,-0.7634,-0.7647,-0.7663,-0.7668,-0.7689,-0.7707,-0.7725,-0.7749,-0.7758,-0.7774,-0.7779,-0.7768,-0.777,-0.7773,-0.7773,-0.7783,-0.7785,-0.7785,-0.7785,-0.7785,0,-0.7528,-0.7538,-0.7563,-0.7573,-0.7584,-0.7599,-0.7611,-0.7628,-0.7639,-0.7662,-0.767,-0.7689,-0.7705,-0.7733,-0.7751,-0.777,-0.7775,-0.7777,-0.7778,-0.7773,-0.7775,-0.7774,-0.7775,-0.7776,-0.7776,-0.7776,-0.7776,0,-0.7529,-0.7537,-0.7553,-0.7571,-0.7584,-0.76,-0.7616,-0.7623,-0.7644,-0.7656,-0.7674,-0.7687,-0.7712,-0.773,-0.7751,-0.7764,-0.7773,-0.7776,-0.7778,-0.7773,-0.7766,-0.777,-0.7766,-0.7775,-0.7775,-0.7775,-0.7775,-0.7776,-0.7527,-0.7537,-0.7556,-0.7573,-0.7587,-0.7602,-0.7613,-0.7627,-0.7643,-0.7664,-0.7674,-0.7692,-0.7712,-0.7741,-0.7753,-0.7769,-0.7771,-0.7774,-0.7775,-0.7775,-0.7774,-0.7764,-0.7772,-0.7772,-0.7773,-0.7773,-0.7773,0,-0.7529,-0.7542,-0.7558,-0.7579,-0.7593,-0.7601,-0.7619,-0.763,-0.7646,-0.7663,-0.7679,-0.77,-0.7718,-0.7738,-0.7757,-0.7766,-0.7771,-0.777,-0.777,-0.7773,-0.7771,-0.7767,-0.7766,-0.7766,-0.7766,-0.7766,-0.7766,-0.7766,-0.7532,-0.7548,-0.7558,-0.7582,-0.7595,-0.7613,-0.7623,-0.7637,-0.765,-0.7673,-0.7689,-0.7701,-0.7719,-0.7741,-0.7758,-0.7763,-0.777,-0.7768,-0.7775,-0.7772,-0.7773,-0.7773,-0.777,-0.7769,-0.7769,-0.7775,-0.7775,-0.7775]},{"header":{"parameterUnit":"m.s-1","parameterCategory":1,"la1":30.2991,"la2":30.254,"lo1":-89.0895,"lo2":-89.0444,"dy":0.0017,"dx":0.0017,"nx":28,"ny":28,"refTime":"2025-12-21T09:00:00:Z","depth":0,"parameterNumber":3,"parameterNumberName":"V-component_of_WINDS"},"data":[0,0,0,0,0,0,0,0,0,0,0,0,0,0,0,0,0,0,0,0,0,0,0,0,0,0,0,0,0,0,0,0,0,0,0,0,0,0,0,0,0,0,0,0,0,0,0,0,0,0,0,0,0,0,0,0,0,0,0.7912,0.7912,0,0.7915,0.7915,0.7915,0.7876,0.7874,0.7873,0.7872,0.7877,0.7878,0.7879,0,0,0,0,0,0,0,0,0,0,0,0,0,0.7872,0.7873,0.7912,0.7912,0.7912,0.7915,0.7915,0.7915,0.7876,0.7874,0.7873,0.7872,0.7876,0.7878,0.7879,0,0,0,0,0,0,0,0,0,0,0,0,0,0.7884,0.7873,0.7912,0.7893,0.7891,0.7915,0.7915,0.7915,0.7876,0.7874,0.7873,0.7871,0.7876,0.7877,0.7879,0.7922,0,0,0.7884,0.7885,0,0,0,0,0,0,0,0,0.7883,0.7885,0.7896,0.7894,0.7892,0.7893,0.7903,0.7918,0.7876,0.7882,0.7872,0.787,0.7884,0.7884,0.7889,0.7922,0.7923,0.7884,0.7885,0.7886,0.7887,0,0,0,0,0,0,0,0.7883,0.7885,0.7913,0.7896,0.7894,0.7884,0.7884,0.7905,0.7892,0.7881,0.7878,0.7879,0.7882,0.7887,0.7889,0.7923,0.7884,0.7886,0.7887,0.7888,0.7992,0.7994,0,0,0,0,0,0,0.7884,0.7885,0.7913,0.7913,0.7884,0.7886,0.7886,0.7895,0.7891,0.7889,0.7881,0.7877,0.7885,0.7887,0.7889,0.7939,0.7886,0.7888,0.7889,0.799,0.7992,0.7994,0,0,0,0,0,0,0.7884,0.7887,0.7913,0.7898,0.7901,0.7889,0.7899,0.7896,0.79,0.7891,0.7888,0.7888,0.7884,0.7886,0.7914,0.7939,0.7889,0.789,0.7988,0.7991,0.7993,0.804,0,0,0,0,0,0,0.7883,0.7887,0.7903,0.7899,0.7902,0.7939,0.79,0.7897,0.7903,0.7899,0.7897,0.7895,0.7883,0.7912,0.7916,0.794,0.7891,0.7986,0.7989,0.7992,0.8037,0.8044,0.8051,0,0,0,0,0,0.7881,0.7917,0.7904,0.7908,0.7922,0.794,0.7942,0.7926,0.7905,0.7922,0.7916,0.7895,0.7935,0.7915,0.7919,0.7944,0.7984,0.7988,0.7992,0.8033,0.8043,0.8051,0,0,0,0,0,0,0.7925,0.7916,0.7902,0.7937,0.794,0.7933,0.7953,0.7937,0.7945,0.7941,0.7922,0.7922,0.7953,0.7951,0.7929,0.7986,0.7956,0.7961,0.7986,0.7995,0.8002,0.8002,0.7893,0,0,0,0,0,0.7938,0.7954,0.7945,0.7977,0.7979,0.7966,0.7973,0.7961,0.7963,0.7964,0.796,0.7963,0.7976,0.7985,0.7997,0.8036,0.8035,0.8055,0.8062,0.8068,0.8073,0.8094,0.8103,0.8007,0.8007,0.8007,0,0,0.7967,0.7964,0.7975,0.7986,0.7986,0.8003,0.7967,0.7986,0.7999,0.7967,0.7993,0.799,0.7992,0.8026,0.8041,0.8026,0.8099,0.8073,0.8078,0.808,0.8099,0.8108,0.8116,0.801,0.8009,0.8009,0,0,0.8027,0.8026,0.8053,0.8054,0.8055,0.8046,0.8053,0.8049,0.8046,0.8071,0.8048,0.8062,0.8085,0.8088,0.8092,0.8153,0.8135,0.8157,0.8195,0.8215,0.8222,0.8229,0.8251,0.8259,0.8161,0.8162,0.8162,0,0.8063,0.8087,0.8069,0.8089,0.8095,0.8066,0.8093,0.8095,0.81,0.8105,0.8087,0.8115,0.8115,0.8149,0.8164,0.8168,0.8175,0.8157,0.8223,0.8229,0.8235,0.8256,0.8264,0.8164,0.8164,0.8164,0.8163,0,0.8131,0.8148,0.8169,0.8174,0.8182,0.8205,0.8191,0.8201,0.8188,0.8181,0.8207,0.8205,0.8216,0.8223,0.821,0.8255,0.8246,0.8226,0.8196,0.8247,0.8267,0.8274,0.8168,0.8167,0.8166,0.8166,0,0,0.822,0.8214,0.8222,0.8224,0.8223,0.8236,0.8258,0.8268,0.8277,0.8281,0.83,0.8319,0.8301,0.8306,0.8293,0.8311,0.836,0.8289,0.8289,0.8303,0.8409,0.8425,0.8435,0.8347,0.8349,0.835,0.8409,0,0.8279,0.8317,0.8301,0.834,0.8356,0.8328,0.8348,0.8349,0.8343,0.8356,0.8349,0.8363,0.8337,0.834,0.8356,0.835,0.8381,0.8346,0.8365,0.8366,0.8366,0.8445,0.8461,0.8518,0.8417,0.8418,0.8419,0,0.8354,0.8361,0.8402,0.8397,0.8403,0.8421,0.8429,0.8441,0.8442,0.8436,0.8441,0.8424,0.8446,0.8415,0.8445,0.8421,0.8428,0.8426,0.8428,0.843,0.8396,0.8449,0.8535,0.8544,0.8431,0.843,0.8429,0,0.8416,0.8435,0.8462,0.8464,0.846,0.8473,0.8472,0.8471,0.8478,0.8485,0.8489,0.8498,0.8504,0.8511,0.8498,0.8476,0.8529,0.8498,0.8526,0.8526,0.8539,0.8539,0.8628,0.8542,0.8542,0.8542,0.8542,0,0.8484,0.8511,0.849,0.8506,0.8535,0.8516,0.8545,0.854,0.854,0.8555,0.8532,0.8547,0.8528,0.8541,0.853,0.8557,0.8559,0.8556,0.8553,0.8558,0.8559,0.8563,0.8559,0.8544,0.8544,0.8543,0.8543,0,0.8559,0.8546,0.8573,0.8566,0.8565,0.8587,0.8581,0.8596,0.8588,0.8608,0.8611,0.8599,0.8613,0.86,0.8614,0.8606,0.8642,0.8633,0.8642,0.864,0.8669,0.8667,0.8765,0.8777,0.8683,0.8683,0.8684,0,0.8604,0.8623,0.8618,0.8627,0.8627,0.8641,0.8648,0.863,0.8638,0.864,0.8655,0.8667,0.8676,0.87,0.8693,0.8703,0.8695,0.8728,0.8696,0.8701,0.8696,0.8695,0.8697,0.8735,0.8736,0.8737,0.8738,0,0.8686,0.8678,0.8689,0.8697,0.8705,0.8711,0.8715,0.8723,0.8705,0.8715,0.8729,0.8736,0.8749,0.8762,0.877,0.8769,0.8751,0.8748,0.8755,0.8762,0.8766,0.8765,0.866,0.8746,0.8745,0.8745,0.8744,0.8744,0.8748,0.8764,0.8762,0.8775,0.8776,0.878,0.8794,0.8787,0.8798,0.8808,0.8796,0.8814,0.8814,0.8822,0.8823,0.8837,0.8823,0.8833,0.8836,0.8839,0.8843,0.8763,0.8838,0.8838,0.8837,0.8837,0.8837,0,0.8829,0.8827,0.8838,0.8844,0.8854,0.8834,0.8838,0.8847,0.8863,0.8864,0.8873,0.8889,0.8901,0.8894,0.8904,0.8917,0.8909,0.892,0.892,0.892,0.8855,0.8848,0.8926,0.8926,0.8926,0.8926,0.8926,0.8926,0.8873,0.8899,0.8891,0.8917,0.8914,0.8931,0.8934,0.8938,0.8939,0.8958,0.8968,0.8963,0.8961,0.897,0.8981,0.8978,0.8983,0.8998,0.8993,0.8933,0.8924,0.8916,0.8909,0.8999,0.8999,0.9056,0.9057,0.9057]}]]